Wetterdaten: Donnerstag, 07.05.2015
Datum Zeit Temp. A. Feuchte A. Luftdruck Regen Wind Richtung Richtung Sonnenschein ET UV Solar Taupunkt Windchill Windben Empfang
07.05.2015 00:00 8,0 C 98 % 1018,3 hPa 0,0 l/m 0,0 km/h (0 Bft) S 190 0 min 0,000 mm 0,0 UV-I 0 W/m 7,7 C 8,0 C 0,0 km/h (0 Bft) 0,00 %
07.05.2015 00:15 7,9 C 98 % 1019,1 hPa 0,0 l/m 0,0 km/h (0 Bft) SO 137 0 min 0,000 mm 0,0 UV-I 0 W/m 7,6 C 7,9 C 0,0 km/h (0 Bft) 0,00 %
07.05.2015 00:30 7,6 C 99 % 1019,2 hPa 0,0 l/m 0,0 km/h (0 Bft) S 178 0 min 0,000 mm 0,0 UV-I 0 W/m 7,5 C 7,6 C 0,0 km/h (0 Bft) 0,00 %
07.05.2015 00:45 7,6 C 99 % 1019,0 hPa 0,0 l/m 0,0 km/h (0 Bft) S-SW 198 0 min 0,000 mm 0,0 UV-I 0 W/m 7,5 C 7,6 C 0,0 km/h (0 Bft) 0,00 %
07.05.2015 01:00 7,5 C 97 % 1019,3 hPa 0,0 l/m 0,0 km/h (0 Bft) S 186 0 min 0,000 mm 0,0 UV-I 0 W/m 7,1 C 7,5 C 0,0 km/h (0 Bft) 0,00 %
07.05.2015 01:15 7,5 C 97 % 1019,2 hPa 0,0 l/m 0,0 km/h (0 Bft) S-SW 203 0 min 0,000 mm 0,0 UV-I 0 W/m 7,1 C 7,5 C 0,0 km/h (0 Bft) 0,00 %
07.05.2015 01:30 7,2 C 99 % 1019,1 hPa 0,0 l/m 0,0 km/h (0 Bft) S 183 0 min 0,000 mm 0,0 UV-I 0 W/m 7,1 C 7,2 C 0,0 km/h (0 Bft) 0,00 %
07.05.2015 01:45 7,6 C 97 % 1019,3 hPa 0,0 l/m 0,0 km/h (0 Bft) O-SO 111 0 min 0,000 mm 0,0 UV-I 0 W/m 7,2 C 7,6 C 0,0 km/h (0 Bft) 0,00 %
07.05.2015 02:00 7,5 C 99 % 1019,3 hPa 0,0 l/m 0,0 km/h (0 Bft) S-SW 193 0 min 0,000 mm 0,0 UV-I 0 W/m 7,4 C 7,5 C 0,0 km/h (0 Bft) 0,00 %
07.05.2015 02:15 7,7 C 99 % 1019,3 hPa 0,0 l/m 0,0 km/h (0 Bft) S 181 0 min 0,000 mm 0,0 UV-I 0 W/m 7,6 C 7,7 C 0,0 km/h (0 Bft) 0,00 %
07.05.2015 02:30 7,4 C 97 % 1019,2 hPa 0,0 l/m 0,0 km/h (0 Bft) S-SW 197 0 min 0,000 mm 0,0 UV-I 0 W/m 7,0 C 7,4 C 0,0 km/h (0 Bft) 0,00 %
07.05.2015 02:45 7,5 C 99 % 1018,8 hPa 0,0 l/m 0,0 km/h (0 Bft) S 190 0 min 0,000 mm 0,0 UV-I 0 W/m 7,4 C 7,5 C 0,0 km/h (0 Bft) 0,00 %
07.05.2015 03:00 7,7 C 99 % 1018,8 hPa 0,0 l/m 0,0 km/h (0 Bft) S 180 0 min 0,000 mm 0,0 UV-I 0 W/m 7,6 C 7,7 C 0,0 km/h (0 Bft) 0,00 %
07.05.2015 03:15 7,8 C 99 % 1019,3 hPa 0,0 l/m 0,0 km/h (0 Bft) W-SW 245 0 min 0,000 mm 0,0 UV-I 0 W/m 7,7 C 7,8 C 0,0 km/h (0 Bft) 0,00 %
07.05.2015 03:30 7,7 C 99 % 1019,2 hPa 0,0 l/m 0,0 km/h (0 Bft) SW 215 0 min 0,000 mm 0,0 UV-I 0 W/m 7,6 C 7,7 C 0,0 km/h (0 Bft) 0,00 %
07.05.2015 03:45 7,6 C 97 % 1019,2 hPa 0,0 l/m 0,0 km/h (0 Bft) S 186 0 min 0,000 mm 0,0 UV-I 0 W/m 7,2 C 7,6 C 0,0 km/h (0 Bft) 0,00 %
07.05.2015 04:00 7,3 C 97 % 1019,4 hPa 0,0 l/m 0,0 km/h (0 Bft) S 190 0 min 0,000 mm 0,0 UV-I 0 W/m 6,9 C 7,3 C 0,0 km/h (0 Bft) 0,00 %
07.05.2015 04:15 7,4 C 97 % 1019,6 hPa 0,0 l/m 0,0 km/h (0 Bft) S-SW 199 0 min 0,000 mm 0,0 UV-I 0 W/m 7,0 C 7,4 C 0,0 km/h (0 Bft) 0,00 %
07.05.2015 04:30 7,5 C 99 % 1019,5 hPa 0,0 l/m 0,0 km/h (0 Bft) S 186 0 min 0,000 mm 0,0 UV-I 0 W/m 7,4 C 7,5 C 0,0 km/h (0 Bft) 0,00 %
07.05.2015 04:45 7,6 C 99 % 1019,6 hPa 0,0 l/m 0,0 km/h (0 Bft) W-SW 254 0 min 0,000 mm 0,0 UV-I 0 W/m 7,5 C 7,6 C 0,0 km/h (0 Bft) 0,00 %
07.05.2015 05:00 7,7 C 99 % 1019,4 hPa 0,0 l/m 0,0 km/h (0 Bft) S 180 0 min 0,000 mm 0,0 UV-I 0 W/m 7,6 C 7,7 C 0,0 km/h (0 Bft) 0,00 %
07.05.2015 05:15 7,7 C 99 % 1019,7 hPa 0,0 l/m 0,0 km/h (0 Bft) S 184 0 min 0,000 mm 0,0 UV-I 0 W/m 7,6 C 7,7 C 0,0 km/h (0 Bft) 0,00 %
07.05.2015 05:30 8,0 C 99 % 1019,8 hPa 0,0 l/m 0,0 km/h (0 Bft) S 183 0 min 0,000 mm 0,0 UV-I 0 W/m 7,9 C 8,0 C 0,0 km/h (0 Bft) 0,00 %
07.05.2015 05:45 8,2 C 99 % 1020,0 hPa 0,0 l/m 0,0 km/h (0 Bft) S-SW 199 0 min 0,000 mm 0,0 UV-I 1 W/m 8,1 C 8,2 C 0,0 km/h (0 Bft) 0,00 %
07.05.2015 06:00 8,8 C 99 % 1020,1 hPa 0,0 l/m 0,0 km/h (0 Bft) S-SW 204 15 min 0,000 mm 0,0 UV-I 45 W/m 8,7 C 8,8 C 0,0 km/h (0 Bft) 0,00 %
07.05.2015 06:15 8,7 C 97 % 1020,1 hPa 0,0 l/m 0,0 km/h (0 Bft) S 191 0 min 0,000 mm 0,0 UV-I 30 W/m 8,3 C 8,7 C 0,0 km/h (0 Bft) 0,00 %
07.05.2015 06:30 8,9 C 97 % 1020,2 hPa 0,0 l/m 0,0 km/h (0 Bft) S 185 0 min 0,000 mm 1,0 UV-I 42 W/m 8,4 C 8,9 C 0,0 km/h (0 Bft) 0,00 %
07.05.2015 06:45 9,8 C 95 % 1020,0 hPa 0,0 l/m 0,0 km/h (0 Bft) S 187 15 min 0,000 mm 1,0 UV-I 104 W/m 9,0 C 9,8 C 0,0 km/h (0 Bft) 0,00 %
07.05.2015 07:00 10,0 C 92 % 1020,3 hPa 0,0 l/m 0,0 km/h (0 Bft) S 187 0 min 0,000 mm 0,0 UV-I 112 W/m 8,8 C 10,0 C 0,0 km/h (0 Bft) 0,00 %
07.05.2015 07:15 10,1 C 90 % 1020,4 hPa 0,0 l/m 0,0 km/h (0 Bft) S 186 0 min 0,000 mm 1,0 UV-I 72 W/m 8,5 C 10,1 C 0,0 km/h (0 Bft) 0,00 %
07.05.2015 07:30 10,6 C 89 % 1020,3 hPa 0,0 l/m 0,0 km/h (0 Bft) S 184 0 min 0,000 mm 1,0 UV-I 119 W/m 8,9 C 10,6 C 0,0 km/h (0 Bft) 0,00 %
07.05.2015 07:45 11,4 C 84 % 1020,0 hPa 0,0 l/m 0,0 km/h (0 Bft) S 191 0 min 0,000 mm 1,0 UV-I 159 W/m 8,8 C 11,4 C 0,0 km/h (0 Bft) 0,00 %
07.05.2015 08:00 11,8 C 82 % 1020,2 hPa 0,0 l/m 0,0 km/h (0 Bft) W-SW 251 0 min 0,000 mm 1,0 UV-I 186 W/m 8,8 C 11,8 C 0,0 km/h (0 Bft) 0,00 %
07.05.2015 08:15 12,1 C 83 % 1020,1 hPa 0,0 l/m 0,0 km/h (0 Bft) SO 132 0 min 0,000 mm 2,0 UV-I 203 W/m 9,3 C 12,1 C 0,0 km/h (0 Bft) 0,00 %
07.05.2015 08:30 12,8 C 82 % 1020,0 hPa 0,0 l/m 0,0 km/h (0 Bft) S-SW 207 0 min 0,000 mm 2,0 UV-I 212 W/m 9,8 C 12,8 C 0,0 km/h (0 Bft) 0,00 %
07.05.2015 08:45 12,6 C 82 % 1020,1 hPa 0,0 l/m 0,0 km/h (0 Bft) W-SW 248 0 min 0,000 mm 2,0 UV-I 191 W/m 9,6 C 12,6 C 0,0 km/h (0 Bft) 0,00 %
07.05.2015 09:00 12,8 C 81 % 1020,1 hPa 0,0 l/m 0,7 km/h (0 Bft) W-SW 242 0 min 0,000 mm 1,0 UV-I 236 W/m 9,6 C 12,8 C 4,0 km/h (1 Bft) 0,00 %
07.05.2015 09:15 13,0 C 81 % 1020,2 hPa 0,0 l/m 3,2 km/h (1 Bft) S-SW 211 0 min 0,000 mm 2,0 UV-I 179 W/m 9,8 C 13,0 C 7,9 km/h (2 Bft) 0,00 %
07.05.2015 09:30 13,4 C 78 % 1019,9 hPa 0,0 l/m 1,4 km/h (1 Bft) S-SW 203 0 min 0,000 mm 3,0 UV-I 261 W/m 9,6 C 13,4 C 4,0 km/h (1 Bft) 0,00 %
07.05.2015 09:45 15,2 C 72 % 1019,8 hPa 0,0 l/m 3,2 km/h (1 Bft) W 264 15 min 0,000 mm 3,0 UV-I 432 W/m 10,2 C 15,2 C 4,0 km/h (1 Bft) 0,00 %
07.05.2015 10:00 14,7 C 72 % 1019,9 hPa 0,0 l/m 0,4 km/h (0 Bft) S-SW 205 0 min 0,000 mm 2,0 UV-I 333 W/m 9,7 C 14,7 C 4,0 km/h (1 Bft) 0,00 %
07.05.2015 10:15 14,4 C 72 % 1020,0 hPa 0,0 l/m 6,5 km/h (2 Bft) W-SW 249 0 min 0,000 mm 4,0 UV-I 313 W/m 9,4 C 14,4 C 7,9 km/h (2 Bft) 0,00 %
07.05.2015 10:30 15,0 C 72 % 1019,8 hPa 0,0 l/m 0,7 km/h (0 Bft) W-SW 240 0 min 0,000 mm 3,0 UV-I 311 W/m 10,0 C 15,0 C 4,0 km/h (1 Bft) 0,00 %
07.05.2015 10:45 15,9 C 69 % 1019,7 hPa 0,0 l/m 0,7 km/h (0 Bft) W-SW 254 0 min 0,000 mm 2,0 UV-I 401 W/m 10,2 C 15,9 C 4,0 km/h (1 Bft) 0,00 %
07.05.2015 11:00 15,5 C 70 % 1019,9 hPa 0,0 l/m 1,4 km/h (1 Bft) S-SW 203 0 min 0,000 mm 3,0 UV-I 320 W/m 10,1 C 15,5 C 4,0 km/h (1 Bft) 0,00 %
07.05.2015 11:15 15,9 C 70 % 1019,8 hPa 0,0 l/m 2,9 km/h (1 Bft) NW 307 15 min 0,000 mm 2,0 UV-I 436 W/m 10,4 C 15,9 C 4,0 km/h (1 Bft) 0,00 %
07.05.2015 11:30 14,8 C 74 % 1020,1 hPa 0,0 l/m 0,0 km/h (0 Bft) S 190 0 min 0,000 mm 2,0 UV-I 289 W/m 10,2 C 14,8 C 0,0 km/h (0 Bft) 0,00 %
07.05.2015 11:45 16,0 C 69 % 1019,7 hPa 0,0 l/m 0,7 km/h (0 Bft) S-SW 198 0 min 0,000 mm 6,0 UV-I 281 W/m 10,3 C 16,0 C 4,0 km/h (1 Bft) 0,00 %
07.05.2015 12:00 16,4 C 65 % 1019,5 hPa 0,0 l/m 0,4 km/h (0 Bft) S 180 0 min 0,000 mm 4,0 UV-I 297 W/m 9,8 C 16,4 C 4,0 km/h (1 Bft) 0,00 %
07.05.2015 12:15 16,1 C 59 % 1019,4 hPa 0,0 l/m 1,8 km/h (1 Bft) N-NW 341 0 min 0,000 mm 5,0 UV-I 369 W/m 8,1 C 16,1 C 7,9 km/h (2 Bft) 0,00 %
07.05.2015 12:30 16,8 C 55 % 1019,3 hPa 0,0 l/m 0,0 km/h (0 Bft) S-SW 194 0 min 0,000 mm 2,0 UV-I 393 W/m 7,7 C 16,8 C 0,0 km/h (0 Bft) 0,00 %
07.05.2015 12:45 16,1 C 59 % 1019,1 hPa 0,0 l/m 0,0 km/h (0 Bft) S-SW 195 0 min 0,000 mm 3,0 UV-I 239 W/m 8,1 C 16,1 C 0,0 km/h (0 Bft) 0,00 %
07.05.2015 13:00 16,2 C 58 % 1018,9 hPa 0,0 l/m 0,0 km/h (0 Bft) SW 230 0 min 0,000 mm 4,0 UV-I 350 W/m 7,9 C 16,2 C 0,0 km/h (0 Bft) 0,00 %
07.05.2015 13:15 17,0 C 55 % 1018,7 hPa 0,0 l/m 0,0 km/h (0 Bft) S 183 0 min 0,000 mm 6,0 UV-I 332 W/m 7,9 C 17,0 C 0,0 km/h (0 Bft) 0,00 %
07.05.2015 13:30 18,0 C 53 % 1018,2 hPa 0,0 l/m 0,0 km/h (0 Bft) SW 215 15 min 0,000 mm 6,0 UV-I 807 W/m 8,3 C 18,0 C 0,0 km/h (0 Bft) 0,00 %
07.05.2015 13:45 17,0 C 60 % 1018,4 hPa 0,0 l/m 0,0 km/h (0 Bft) SO 136 15 min 0,000 mm 4,0 UV-I 934 W/m 9,2 C 17,0 C 0,0 km/h (0 Bft) 0,00 %
07.05.2015 14:00 17,0 C 59 % 1018,2 hPa 0,0 l/m 4,0 km/h (1 Bft) NW 326 0 min 0,000 mm 5,0 UV-I 371 W/m 8,9 C 17,0 C 7,9 km/h (2 Bft) 0,00 %
07.05.2015 14:15 17,4 C 60 % 1018,2 hPa 0,0 l/m 0,0 km/h (0 Bft) O-NO 73 15 min 0,000 mm 6,0 UV-I 875 W/m 9,6 C 17,4 C 0,0 km/h (0 Bft) 0,00 %
07.05.2015 14:30 19,3 C 52 % 1017,7 hPa 0,0 l/m 0,0 km/h (0 Bft) S-SW 202 15 min 0,000 mm 4,0 UV-I 965 W/m 9,2 C 19,3 C 0,0 km/h (0 Bft) 0,00 %
07.05.2015 14:45 19,7 C 49 % 1017,3 hPa 0,0 l/m 0,4 km/h (0 Bft) S 191 15 min 0,000 mm 2,0 UV-I 488 W/m 8,7 C 19,7 C 4,0 km/h (1 Bft) 0,00 %
07.05.2015 15:00 18,7 C 56 % 1017,6 hPa 0,0 l/m 0,0 km/h (0 Bft) S 183 0 min 0,000 mm 4,0 UV-I 203 W/m 9,7 C 18,7 C 0,0 km/h (0 Bft) 0,00 %
07.05.2015 15:15 18,3 C 50 % 1017,5 hPa 0,0 l/m 1,8 km/h (1 Bft) W-NW 296 0 min 0,000 mm 2,0 UV-I 194 W/m 7,7 C 18,3 C 4,0 km/h (1 Bft) 0,00 %
07.05.2015 15:30 19,3 C 45 % 1017,2 hPa 0,0 l/m 5,4 km/h (1 Bft) W-NW 283 15 min 0,000 mm 2,0 UV-I 839 W/m 7,1 C 19,3 C 7,9 km/h (2 Bft) 0,00 %
07.05.2015 15:45 19,3 C 48 % 1017,2 hPa 0,0 l/m 1,4 km/h (1 Bft) W-SW 249 15 min 0,000 mm 2,0 UV-I 908 W/m 8,0 C 19,3 C 4,0 km/h (1 Bft) 0,00 %
07.05.2015 16:00 20,3 C 47 % 1017,1 hPa 0,0 l/m 0,7 km/h (0 Bft) S-SW 202 15 min 0,000 mm 2,0 UV-I 849 W/m 8,6 C 20,3 C 4,0 km/h (1 Bft) 0,00 %
07.05.2015 16:15 19,1 C 49 % 1017,0 hPa 0,0 l/m 0,4 km/h (0 Bft) S 170 15 min 0,000 mm 2,0 UV-I 905 W/m 8,1 C 19,1 C 4,0 km/h (1 Bft) 0,00 %
07.05.2015 16:30 19,9 C 47 % 1016,9 hPa 0,0 l/m 0,0 km/h (0 Bft) S-SW 201 15 min 0,000 mm 2,0 UV-I 754 W/m 8,3 C 19,9 C 0,0 km/h (0 Bft) 0,00 %
07.05.2015 16:45 20,1 C 51 % 1016,7 hPa 0,0 l/m 0,0 km/h (0 Bft) S 183 15 min 0,000 mm 2,0 UV-I 751 W/m 9,6 C 20,1 C 0,0 km/h (0 Bft) 0,00 %
07.05.2015 17:00 19,0 C 50 % 1016,8 hPa 0,0 l/m 0,0 km/h (0 Bft) S 178 0 min 0,000 mm 2,0 UV-I 169 W/m 8,3 C 19,0 C 0,0 km/h (0 Bft) 0,00 %
07.05.2015 17:15 18,3 C 51 % 1016,8 hPa 0,0 l/m 0,0 km/h (0 Bft) N 359 0 min 0,000 mm 2,0 UV-I 208 W/m 8,0 C 18,3 C 0,0 km/h (0 Bft) 0,00 %
07.05.2015 17:30 19,5 C 48 % 1016,5 hPa 0,0 l/m 0,0 km/h (0 Bft) S 188 15 min 0,000 mm 1,0 UV-I 651 W/m 8,2 C 19,5 C 0,0 km/h (0 Bft) 0,00 %
07.05.2015 17:45 19,8 C 45 % 1016,3 hPa 0,0 l/m 1,4 km/h (1 Bft) W-NW 288 15 min 0,000 mm 1,0 UV-I 497 W/m 7,5 C 19,8 C 4,0 km/h (1 Bft) 0,00 %
07.05.2015 18:00 19,5 C 44 % 1016,3 hPa 0,0 l/m 0,0 km/h (0 Bft) S 180 15 min 0,000 mm 1,0 UV-I 632 W/m 6,9 C 19,5 C 0,0 km/h (0 Bft) 0,00 %
07.05.2015 18:15 19,3 C 45 % 1016,4 hPa 0,0 l/m 1,4 km/h (1 Bft) S 190 15 min 0,000 mm 1,0 UV-I 583 W/m 7,1 C 19,3 C 4,0 km/h (1 Bft) 0,00 %
07.05.2015 18:30 19,6 C 48 % 1016,3 hPa 0,0 l/m 3,2 km/h (1 Bft) SW 233 15 min 0,000 mm 1,0 UV-I 573 W/m 8,3 C 19,6 C 4,0 km/h (1 Bft) 0,00 %
07.05.2015 18:45 19,0 C 51 % 1016,5 hPa 0,0 l/m 2,2 km/h (1 Bft) SW 223 15 min 0,000 mm 1,0 UV-I 511 W/m 8,6 C 19,0 C 4,0 km/h (1 Bft) 0,00 %
07.05.2015 19:00 18,3 C 51 % 1016,6 hPa 0,0 l/m 0,0 km/h (0 Bft) NW 314 15 min 0,000 mm 1,0 UV-I 439 W/m 8,0 C 18,3 C 0,0 km/h (0 Bft) 0,00 %
07.05.2015 19:15 18,5 C 52 % 1016,7 hPa 0,0 l/m 0,0 km/h (0 Bft) S 191 15 min 0,000 mm 1,0 UV-I 346 W/m 8,5 C 18,5 C 0,0 km/h (0 Bft) 0,00 %
07.05.2015 19:30 18,3 C 50 % 1017,0 hPa 0,0 l/m 0,0 km/h (0 Bft) S-SW 194 15 min 0,000 mm 0,0 UV-I 226 W/m 7,7 C 18,3 C 0,0 km/h (0 Bft) 0,00 %
07.05.2015 19:45 16,9 C 56 % 1017,3 hPa 0,0 l/m 0,0 km/h (0 Bft) S 180 15 min 0,000 mm 0,0 UV-I 77 W/m 8,1 C 16,9 C 0,0 km/h (0 Bft) 0,00 %
07.05.2015 20:00 16,1 C 60 % 1017,4 hPa 0,0 l/m 0,0 km/h (0 Bft) S 182 15 min 0,000 mm 0,0 UV-I 31 W/m 8,3 C 16,1 C 0,0 km/h (0 Bft) 0,00 %
07.05.2015 20:15 15,2 C 65 % 1017,7 hPa 0,0 l/m 0,0 km/h (0 Bft) S 180 0 min 0,000 mm 0,0 UV-I 5 W/m 8,7 C 15,2 C 0,0 km/h (0 Bft) 0,00 %
07.05.2015 20:30 14,6 C 63 % 1017,8 hPa 0,0 l/m 0,0 km/h (0 Bft) S 179 0 min 0,000 mm 0,0 UV-I 0 W/m 7,6 C 14,6 C 0,0 km/h (0 Bft) 0,00 %
07.05.2015 20:45 13,7 C 73 % 1018,2 hPa 0,0 l/m 0,0 km/h (0 Bft) S 182 0 min 0,000 mm 0,0 UV-I 0 W/m 8,9 C 13,7 C 0,0 km/h (0 Bft) 0,00 %
07.05.2015 21:00 12,9 C 76 % 1018,5 hPa 0,0 l/m 0,0 km/h (0 Bft) S 182 0 min 0,000 mm 0,0 UV-I 0 W/m 8,8 C 12,9 C 0,0 km/h (0 Bft) 0,00 %
07.05.2015 21:15 12,4 C 69 % 1018,7 hPa 0,0 l/m 0,0 km/h (0 Bft) S 176 0 min 0,000 mm 0,0 UV-I 0 W/m 6,9 C 12,4 C 0,0 km/h (0 Bft) 0,00 %
07.05.2015 21:30 12,6 C 71 % 1018,6 hPa 0,0 l/m 0,0 km/h (0 Bft) S 179 0 min 0,000 mm 0,0 UV-I 0 W/m 7,5 C 12,6 C 0,0 km/h (0 Bft) 0,00 %
07.05.2015 21:45 12,4 C 69 % 1018,9 hPa 0,0 l/m 0,0 km/h (0 Bft) S 191 0 min 0,000 mm 0,0 UV-I 0 W/m 6,9 C 12,4 C 0,0 km/h (0 Bft) 0,00 %
07.05.2015 22:00 12,3 C 73 % 1019,0 hPa 0,0 l/m 0,0 km/h (0 Bft) S-SW 201 0 min 0,000 mm 0,0 UV-I 0 W/m 7,6 C 12,3 C 0,0 km/h (0 Bft) 0,00 %
07.05.2015 22:15 11,6 C 77 % 1019,2 hPa 0,0 l/m 0,0 km/h (0 Bft) S-SW 199 0 min 0,000 mm 0,0 UV-I 0 W/m 7,7 C 11,6 C 0,0 km/h (0 Bft) 0,00 %
07.05.2015 22:30 10,9 C 81 % 1018,9 hPa 0,0 l/m 0,0 km/h (0 Bft) S 189 0 min 0,000 mm 0,0 UV-I 0 W/m 7,8 C 10,9 C 0,0 km/h (0 Bft) 0,00 %
07.05.2015 22:45 10,5 C 80 % 1019,0 hPa 0,0 l/m 0,0 km/h (0 Bft) S 184 0 min 0,000 mm 0,0 UV-I 0 W/m 7,2 C 10,5 C 0,0 km/h (0 Bft) 0,00 %
07.05.2015 23:00 10,9 C 79 % 1019,0 hPa 0,0 l/m 0,0 km/h (0 Bft) S 185 0 min 0,000 mm 0,0 UV-I 0 W/m 7,4 C 10,9 C 0,0 km/h (0 Bft) 0,00 %
07.05.2015 23:15 10,5 C 82 % 1019,2 hPa 0,0 l/m 0,0 km/h (0 Bft) S 178 0 min 0,000 mm 0,0 UV-I 0 W/m 7,6 C 10,5 C 0,0 km/h (0 Bft) 0,00 %
07.05.2015 23:30 10,4 C 85 % 1019,1 hPa 0,0 l/m 0,0 km/h (0 Bft) S 186 0 min 0,000 mm 0,0 UV-I 0 W/m 8,0 C 10,4 C 0,0 km/h (0 Bft) 0,00 %
07.05.2015 23:45 9,8 C 87 % 1019,3 hPa 0,0 l/m 0,0 km/h (0 Bft) S 180 0 min 0,000 mm 0,0 UV-I 0 W/m 7,7 C 9,8 C 0,0 km/h (0 Bft) 0,00 %
_ Min-Zeit 01:30 18:00 17:45 - 00:00 - - - - - - 04:00 01:30 00:00 00:00
Minimum _ 7,2 C 44 % 1016,3 hPa - 0,0 km/h (0 Bft) - - - - - - 6,9 C 7,2 C 0,0 km/h (0 Bft) 0,00 %
_ Max-Zeit 16:00 00:30 07:15 00:00 10:15 - - 06:00 00:00 11:45 14:30 11:15 16:00 09:15 00:00
Maximum _ 20,3 C 99 % 1020,4 hPa 0,0 l/m 6,5 km/h
W-SW (2 Bft)
- - 15 min 0,000 mm 6,0 UV-I 965 W/m 10,4 C 20,3 C 7,9 km/h
S-SW (2 Bft)
0,00 %
Durchschnitt _ 13,3 C 74 % 1018,8 hPa #0,0 l/m 0,5 km/h (0 Bft) S-SW - #6:30 h #0,000 mm 2,5 UV-I 374 W/m 8,3 C 13,3 C 1,2 km/h (1 Bft) 0,00 %